Home > Weather > Utrecht > Past weeks

Flag for Netherlands Weather for the Past 2 Weeks in Utrecht, Netherlands

Now
37 °F

Partly cloudy.


Feels Like: 28 °F
Forecast: 25 / 35 °F
Wind: 15 mph from Northeast

Location: Amsterdam Schiphol Airport

Current Time: Feb 15, 2016 at 1:14:36 AM

Latest Report: Feb 15, 2016 at 12:25 AM


Visibility: N/A

Pressure: 29.65 "Hg

Humidity: 87%

Dew point: 34 °F

Location of UtrechtLocation

Historic Weather in Utrecht — Graph

°F

Utrecht Temperature Yesterday

Maximum temperature yesterday: 37 °F (at 12:25 AM)
Minimum temperature yesterday: 34 °F (at 12:55 PM)
Average temperature yesterday: 36 °F

High & Low Weather Summary for the Past Weeks

 TemperatureHumidityPressure
High54 °F (Feb 1, 8:25 AM)100% (Jan 31, 4:55 PM)30.27 "Hg (Jan 31, 4:55 PM)
Low28 °F (Feb 13, 3:55 AM)57% (Feb 2, 7:25 PM)28.94 "Hg (Feb 9, 3:25 PM)
Average43 °F82%29.59 "Hg
* Reported Jan 30 11:25 PM — Feb 14 11:25 PM, Utrecht, Weather by CustomWeather, © 2016

Note: Actual official high and low records may vary slightly from our data, if they occured in-between our weather recording intervals... More about our weather records

Advertising

Utrecht Weather History for the Previous 24 Hours

 ConditionsComfort  
Time TempWeatherWind HumidityBarometerVisibility
11:25 PM
Sun, Feb 14
37 °FPassing clouds.17 mph87%29.59 "HgN/A
10:55 PM37 °FPassing clouds.16 mph93%29.59 "HgN/A
10:25 PM37 °FPassing clouds.15 mph87%29.56 "HgN/A
9:55 PM37 °FPartly cloudy.16 mph87%29.53 "HgN/A
9:25 PM37 °FPassing clouds.15 mph87%29.53 "HgN/A
8:55 PM37 °FPassing clouds.17 mph87%29.50 "HgN/A
8:25 PM37 °FPartly cloudy.14 mph93%29.50 "Hg6 mi
7:55 PM37 °FPartly cloudy.12 mph93%29.47 "Hg6 mi
7:25 PM37 °FPassing clouds.16 mph87%29.45 "HgN/A
6:55 PM37 °FPassing clouds.14 mph87%29.45 "HgN/A
6:25 PM36 °FPassing clouds.14 mph93%29.42 "Hg4 mi
5:55 PM36 °FPassing clouds.12 mph93%29.39 "Hg4 mi
5:25 PM36 °FDrizzle. Broken clouds.12 mph93%29.39 "Hg4 mi
4:55 PM36 °FDrizzle. Partly sunny.13 mph93%29.36 "Hg4 mi
4:25 PM36 °FDrizzle. Partly sunny.13 mph93%29.36 "Hg4 mi
3:55 PM36 °FLight rain. Partly sunny.13 mph93%29.33 "Hg3 mi
3:25 PM36 °FLight rain. Partly sunny.12 mph93%29.30 "Hg4 mi
2:55 PM36 °FLight rain. Broken clouds.10 mph93%29.30 "Hg4 mi
2:25 PM36 °FLight rain. Broken clouds.10 mph93%29.30 "Hg5 mi
1:55 PM36 °FLight rain. Partly sunny.10 mph93%29.27 "Hg4 mi
1:25 PM34 °FRain. Partly sunny.7 mph100%29.27 "Hg2 mi
12:55 PM34 °FRain. Partly sunny.9 mph100%29.27 "Hg2 mi
12:25 PM36 °FLight rain. Mostly cloudy.13 mph93%29.24 "Hg3 mi
11:55 AM37 °FDrizzle. Broken clouds.14 mph93%29.24 "Hg4 mi
11:25 AM37 °FDrizzle. Broken clouds.13 mph93%29.24 "Hg4 mi
10:55 AM37 °FDrizzle. Broken clouds.15 mph87%29.21 "Hg4 mi
10:25 AM37 °FDrizzle. Broken clouds.13 mph93%29.21 "Hg4 mi
9:55 AM37 °FDrizzle. Broken clouds.13 mph87%29.18 "Hg4 mi
9:25 AM37 °FDrizzle. Partly sunny.15 mph87%29.18 "Hg4 mi
8:25 AM36 °FDrizzle. Partly sunny.15 mph93%29.15 "Hg4 mi
7:55 AM36 °FPassing clouds.13 mph93%29.15 "Hg3 mi
7:25 AM36 °FLight rain. Mostly cloudy.14 mph93%29.15 "Hg3 mi
6:55 AM36 °FLight rain. Partly cloudy.13 mph93%29.15 "Hg3 mi
6:25 AM36 °FLight rain. Partly cloudy.13 mph93%29.12 "Hg3 mi
5:55 AM36 °FPartly cloudy.15 mph93%29.12 "Hg3 mi
4:55 AM36 °FPassing clouds.14 mph93%29.12 "Hg3 mi
4:25 AM36 °FPartly cloudy.14 mph93%29.12 "Hg4 mi
3:55 AM36 °FPartly cloudy.14 mph93%29.12 "Hg4 mi
3:25 AM36 °FPartly cloudy.14 mph93%29.09 "Hg3 mi
2:55 AM36 °FPartly cloudy.16 mph93%29.09 "Hg4 mi
2:25 AM37 °FPartly cloudy.14 mph87%29.09 "Hg4 mi
1:55 AM37 °FPartly cloudy.15 mph87%29.09 "Hg4 mi
1:25 AM37 °FLight rain. Partly cloudy.17 mph87%29.09 "Hg3 mi
Weather by CustomWeather, © 2016

See weather overviewHow to use our weather pages